EN

Hourly Weather Alton

Today, 20 January, Wednesday

Time Temperature Precipitation Wind Pressure Humidity
00:00 -5°C° 0 mm 5 mps 757 mmHg 75%
01:00 -5°C° 0 mm 5 mps 757 mmHg 74%
02:00 -5°C° 0 mm 4 mps 757 mmHg 74%
03:00 -6°C° 0 mm 3 mps 757 mmHg 74%
04:00 -6°C° 0 mm 3 mps 757 mmHg 73%
05:00 -5°C° 0 mm 2 mps 757 mmHg 72%
06:00 -5°C° 0 mm 2 mps 757 mmHg 71%
07:00 -5°C° 0 mm 2 mps 757 mmHg 67%
08:00 -4°C° 0 mm 2 mps 756 mmHg 63%
09:00 -1°C° 0 mm 1 mps 756 mmHg 58%
10:00 -1°C° 0 mm 2 mps 756 mmHg 56%
11:00 -1°C° 0 mm 4 mps 755 mmHg 53%
12:00 +1°C° 0 mm 5 mps 754 mmHg 51%
13:00 +2°C° 0 mm 5 mps 753 mmHg 50%
14:00 +5°C° 0 mm 5 mps 751 mmHg 50%
15:00 +6°C° 0 mm 5 mps 749 mmHg 49%
16:00 +5°C° 0 mm 5 mps 749 mmHg 54%
17:00 +3°C° 0 mm 5 mps 748 mmHg 59%
18:00 +3°C° 0 mm 4 mps 748 mmHg 64%
19:00 +2°C° 0 mm 5 mps 748 mmHg 66%
20:00 +2°C° 0 mm 5 mps 747 mmHg 68%
21:00 +2°C° 0 mm 5 mps 747 mmHg 69%
22:00 +2°C° 0 mm 5 mps 747 mmHg 70%
23:00 +2°C° 0 mm 5 mps 746 mmHg 71%

Tomorrow, 21 January, Thursday

Time Temperature Precipitation Wind Pressure Humidity
00:00 +1°C° 0 mm 5 mps 746 mmHg 71%
01:00 +1°C° 0 mm 4 mps 746 mmHg 75%
02:00 +1°C° 0 mm 4 mps 745 mmHg 79%
03:00 +1°C° 0 mm 4 mps 745 mmHg 83%
04:00 0°C° 0 mm 4 mps 745 mmHg 85%
05:00 +1°C° 0 mm 3 mps 745 mmHg 87%
06:00 0°C° 0 mm 3 mps 745 mmHg 89%
07:00 +1°C° 0 mm 3 mps 746 mmHg 86%
08:00 +1°C° 0 mm 3 mps 746 mmHg 84%
09:00 +1°C° 0 mm 4 mps 746 mmHg 81%
10:00 +4°C° 0 mm 3 mps 746 mmHg 72%
11:00 +5°C° 0 mm 3 mps 746 mmHg 62%
12:00 +8°C° 0 mm 3 mps 746 mmHg 53%
13:00 +9°C° 0 mm 3 mps 745 mmHg 50%
14:00 +9°C° 0 mm 3 mps 745 mmHg 46%
15:00 +10°C° 0 mm 4 mps 745 mmHg 42%
16:00 +8°C° 0 mm 3 mps 745 mmHg 49%
17:00 +7°C° 0 mm 3 mps 745 mmHg 56%
18:00 +5°C° 0 mm 2 mps 746 mmHg 62%
19:00 +4°C° 0 mm 3 mps 746 mmHg 66%
20:00 +3°C° 0 mm 3 mps 746 mmHg 69%
21:00 +2°C° 0 mm 3 mps 747 mmHg 72%
22:00 0°C° 0 mm 4 mps 747 mmHg 73%
23:00 -1°C° 0 mm 4 mps 748 mmHg 73%

Day after tomorrow, 22 January, Friday

Time Temperature Precipitation Wind Pressure Humidity
00:00 -2°C° 0 mm 4 mps 748 mmHg 74%
01:00 -2°C° 0 mm 4 mps 748 mmHg 74%
02:00 -3°C° 0 mm 4 mps 748 mmHg 75%
03:00 -2°C° 0 mm 3 mps 749 mmHg 76%
04:00 -4°C° 0 mm 4 mps 749 mmHg 72%
05:00 -4°C° 0 mm 4 mps 750 mmHg 69%
06:00 -5°C° 0 mm 4 mps 750 mmHg 66%
07:00 -5°C° 0 mm 4 mps 751 mmHg 64%
08:00 -5°C° 0 mm 4 mps 751 mmHg 61%
09:00 -5°C° 0 mm 3 mps 752 mmHg 58%
10:00 -4°C° 0 mm 4 mps 752 mmHg 54%
11:00 -4°C° 0 mm 4 mps 753 mmHg 49%
12:00 -3°C° 0 mm 4 mps 753 mmHg 45%
13:00 -2°C° 0 mm 4 mps 753 mmHg 44%
14:00 -2°C° 0 mm 4 mps 753 mmHg 43%
15:00 -2°C° 0 mm 4 mps 753 mmHg 42%
16:00 -3°C° 0 mm 4 mps 753 mmHg 44%
17:00 -4°C° 0 mm 4 mps 754 mmHg 47%
18:00 -5°C° 0 mm 4 mps 754 mmHg 49%
19:00 -5°C° 0 mm 4 mps 755 mmHg 49%
20:00 -6°C° 0 mm 3 mps 755 mmHg 49%
21:00 -6°C° 0 mm 3 mps 756 mmHg 49%
22:00 -7°C° 0 mm 3 mps 756 mmHg 49%
23:00 -7°C° 0 mm 3 mps 756 mmHg 49%

23 January, Saturday

Time Temperature Precipitation Wind Pressure Humidity
00:00 -7°C° 0 mm 3 mps 756 mmHg 49%
01:00 -6°C° 0 mm 2 mps 756 mmHg 48%
02:00 -7°C° 0 mm 2 mps 756 mmHg 48%
03:00 -7°C° 0 mm 2 mps 756 mmHg 47%
04:00 -7°C° 0 mm 2 mps 756 mmHg 48%
05:00 -7°C° 0 mm 2 mps 756 mmHg 48%
06:00 -7°C° 0 mm 2 mps 756 mmHg 49%
07:00 -7°C° 0 mm 2 mps 757 mmHg 48%
08:00 -6°C° 0 mm 2 mps 757 mmHg 46%
09:00 -6°C° 0 mm 2 mps 757 mmHg 45%
10:00 -5°C° 0 mm 3 mps 757 mmHg 41%
11:00 -4°C° 0 mm 3 mps 756 mmHg 36%
12:00 -1°C° 0 mm 3 mps 756 mmHg 31%
13:00 -1°C° 0 mm 3 mps 755 mmHg 32%
14:00 -1°C° 0 mm 4 mps 754 mmHg 32%
15:00 0°C° 0 mm 4 mps 753 mmHg 33%
16:00 -1°C° 0 mm 4 mps 753 mmHg 39%
17:00 -1°C° 0 mm 3 mps 753 mmHg 44%
18:00 -2°C° 0 mm 3 mps 753 mmHg 50%
19:00 -3°C° 0 mm 4 mps 752 mmHg 50%
20:00 -2°C° 0 mm 4 mps 752 mmHg 50%
21:00 -2°C° 0 mm 5 mps 752 mmHg 51%
22:00 -2°C° 0 mm 5 mps 751 mmHg 52%
23:00 -2°C° 0 mm 4 mps 751 mmHg 53%

24 January, Sunday

Time Temperature Precipitation Wind Pressure Humidity
00:00 0°C° 0 mm 3 mps 750 mmHg 55%
01:00 -2°C° 0.2 mm 4 mps 750 mmHg 62%
02:00 -2°C° 0.2 mm 4 mps 749 mmHg 69%
03:00 -2°C° 0.2 mm 4 mps 749 mmHg 75%
04:00 -2°C° 0.4 mm 4 mps 748 mmHg 77%
05:00 -1°C° 0.4 mm 4 mps 748 mmHg 79%
06:00 -1°C° 0.4 mm 4 mps 747 mmHg 81%
07:00 -1°C° 0.1 mm 4 mps 747 mmHg 80%
08:00 0°C° 0.1 mm 4 mps 747 mmHg 80%
09:00 0°C° 0.1 mm 4 mps 747 mmHg 79%
10:00 +2°C° 0.2 mm 3 mps 746 mmHg 81%
11:00 +3°C° 0.2 mm 3 mps 746 mmHg 82%
12:00 +4°C° 0.2 mm 3 mps 745 mmHg 83%
13:00 +5°C° 0 mm 3 mps 744 mmHg 86%
14:00 +5°C° 0 mm 3 mps 744 mmHg 88%
15:00 +5°C° 0 mm 3 mps 743 mmHg 91%
16:00 +7°C° 0.3 mm 3 mps 742 mmHg 92%
17:00 +7°C° 0.3 mm 3 mps 742 mmHg 93%
18:00 +7°C° 0.3 mm 3 mps 742 mmHg 94%
19:00 +7°C° 0.1 mm 3 mps 742 mmHg 95%
20:00 +6°C° 0.1 mm 4 mps 742 mmHg 96%
21:00 +7°C° 0.1 mm 4 mps 742 mmHg 96%
22:00 +6°C° 0.1 mm 4 mps 742 mmHg 96%
23:00 +5°C° 0.1 mm 4 mps 742 mmHg 95%

25 January, Monday

Time Temperature Precipitation Wind Pressure Humidity
00:00 +5°C° 0.1 mm 5 mps 743 mmHg 95%
01:00 +2°C° 0 mm 5 mps 743 mmHg 92%
02:00 0°C° 0 mm 5 mps 744 mmHg 90%
03:00 -2°C° 0 mm 5 mps 744 mmHg 87%
04:00 -2°C° 0 mm 5 mps 745 mmHg 87%
05:00 -3°C° 0 mm 4 mps 745 mmHg 86%
06:00 -4°C° 0 mm 4 mps 746 mmHg 85%
07:00 -3°C° 0 mm 4 mps 746 mmHg 83%
08:00 -3°C° 0 mm 4 mps 746 mmHg 81%
09:00 -4°C° 0 mm 5 mps 746 mmHg 78%
10:00 -2°C° 0 mm 5 mps 746 mmHg 74%
11:00 -1°C° 0 mm 5 mps 746 mmHg 70%
12:00 0°C° 0 mm 4 mps 745 mmHg 66%
13:00 0°C° 0 mm 5 mps 745 mmHg 67%
14:00 0°C° 0 mm 5 mps 745 mmHg 68%
15:00 +1°C° 0 mm 6 mps 744 mmHg 68%
16:00 -1°C° 0 mm 6 mps 744 mmHg 73%
17:00 0°C° 0 mm 5 mps 745 mmHg 77%
18:00 -1°C° 0 mm 5 mps 745 mmHg 82%
19:00 -1°C° 0.1 mm 5 mps 745 mmHg 84%
20:00 -1°C° 0.1 mm 5 mps 746 mmHg 85%
21:00 -2°C° 0.1 mm 5 mps 746 mmHg 87%
22:00 -2°C° 0 mm 5 mps 746 mmHg 85%
23:00 -2°C° 0 mm 5 mps 746 mmHg 83%
Show more